Time,TemperatureF,DewpointF,PressureIn,WindDirection,WindDirectionDegrees,WindSpeedMPH,WindSpeedGustMPH,Humidity,HourlyPrecipIn,Conditions,Clouds,dailyrainin,SolarRadiationWatts/m^2,SoftwareType,DateUTC
2013-01-21 00:03:00,47.0,9.0,30.23,NW,305,9.0,13.0,21,-99.99,,,-99.99,0.000000,,2013-01-21 07:03:00,
2013-01-21 00:13:00,46.0,9.0,30.23,NW,310,8.0,10.0,21,-99.99,,,-99.99,0.000000,,2013-01-21 07:13:00,
2013-01-21 00:22:00,46.0,9.0,30.23,NW,310,8.0,10.0,21,-99.99,,,-99.99,0.000000,,2013-01-21 07:22:00,
2013-01-21 00:33:00,45.0,9.0,30.22,NW,321,10.0,12.0,22,-99.99,,,-99.99,0.000000,,2013-01-21 07:33:00,
2013-01-21 00:42:00,44.0,9.0,30.23,NW,310,7.0,9.0,22,-99.99,,,-99.99,0.000000,,2013-01-21 07:42:00,
2013-01-21 00:53:00,46.0,9.0,30.22,NW,308,5.0,8.0,21,-99.99,,,-99.99,0.000000,,2013-01-21 07:53:00,
2013-01-21 01:03:00,46.0,9.0,30.22,NW,308,5.0,8.0,21,-99.99,,,-99.99,0.000000,,2013-01-21 08:03:00,
2013-01-21 01:13:00,43.0,9.0,30.22,WNW,303,7.0,9.0,24,-99.99,,,-99.99,0.000000,,2013-01-21 08:13:00,
2013-01-21 01:23:00,43.0,9.0,30.22,WNW,303,7.0,9.0,24,-99.99,,,-99.99,0.000000,,2013-01-21 08:23:00,
2013-01-21 01:32:00,43.0,9.0,30.22,WNW,303,7.0,9.0,24,-99.99,,,-99.99,0.000000,,2013-01-21 08:32:00,
2013-01-21 01:42:00,43.0,9.0,30.22,WNW,303,7.0,9.0,24,-99.99,,,-99.99,0.000000,,2013-01-21 08:42:00,
2013-01-21 02:33:00,44.0,9.0,30.23,NW,309,8.0,10.0,23,-99.99,,,-99.99,0.000000,,2013-01-21 09:33:00,
2013-01-21 02:42:00,44.0,10.0,30.23,NW,319,5.0,8.0,24,-99.99,,,-99.99,0.000000,,2013-01-21 09:42:00,
2013-01-21 02:53:00,42.0,10.0,30.23,WNW,293,6.0,10.0,26,-99.99,,,-99.99,0.000000,,2013-01-21 09:53:00,
2013-01-21 03:02:00,42.0,10.0,30.23,WNW,293,6.0,10.0,26,-99.99,,,-99.99,0.000000,,2013-01-21 10:02:00,
2013-01-21 03:12:00,40.0,10.0,30.23,WNW,297,7.0,9.0,28,-99.99,,,-99.99,0.000000,,2013-01-21 10:12:00,
2013-01-21 03:22:00,40.0,10.0,30.23,WNW,297,7.0,9.0,28,-99.99,,,-99.99,0.000000,,2013-01-21 10:22:00,
2013-01-21 03:32:00,43.0,10.0,30.22,WNW,293,6.0,10.0,24,-99.99,,,-99.99,0.000000,,2013-01-21 10:32:00,
2013-01-21 03:43:00,42.0,10.0,30.22,NW,310,3.0,6.0,26,-99.99,,,-99.99,0.000000,,2013-01-21 10:43:00,
2013-01-21 03:53:00,42.0,10.0,30.22,NW,310,3.0,6.0,26,-99.99,,,-99.99,0.000000,,2013-01-21 10:53:00,
2013-01-21 04:02:00,40.0,10.0,30.22,NW,309,6.0,8.0,28,-99.99,,,-99.99,0.000000,,2013-01-21 11:02:00,
2013-01-21 04:13:00,40.0,10.0,30.22,WNW,294,4.0,7.0,29,-99.99,,,-99.99,0.000000,,2013-01-21 11:13:00,
2013-01-21 04:23:00,40.0,10.0,30.22,WNW,294,4.0,7.0,29,-99.99,,,-99.99,0.000000,,2013-01-21 11:23:00,
2013-01-21 04:33:00,38.0,10.0,30.22,WNW,300,5.0,7.0,31,-99.99,,,-99.99,0.000000,,2013-01-21 11:33:00,
2013-01-21 04:42:00,38.0,11.0,30.22,WNW,301,6.0,8.0,31,-99.99,,,-99.99,0.000000,,2013-01-21 11:42:00,
2013-01-21 04:53:00,38.0,11.0,30.22,WNW,301,6.0,8.0,31,-99.99,,,-99.99,0.000000,,2013-01-21 11:53:00,
2013-01-21 05:02:00,38.0,11.0,30.21,NW,304,7.0,9.0,31,-99.99,,,-99.99,0.000000,,2013-01-21 12:02:00,
2013-01-21 05:12:00,39.0,10.0,30.22,NW,304,6.0,8.0,30,-99.99,,,-99.99,0.000000,,2013-01-21 12:12:00,
2013-01-21 05:22:00,39.0,10.0,30.22,NW,304,6.0,8.0,30,-99.99,,,-99.99,0.000000,,2013-01-21 12:22:00,
2013-01-21 05:32:00,39.0,10.0,30.22,WNW,291,5.0,7.0,30,-99.99,,,-99.99,0.000000,,2013-01-21 12:32:00,
2013-01-21 05:42:00,39.0,10.0,30.22,WNW,288,4.0,6.0,29,-99.99,,,-99.99,0.000000,,2013-01-21 12:42:00,
2013-01-21 05:53:00,39.0,10.0,30.22,WNW,288,4.0,6.0,29,-99.99,,,-99.99,0.000000,,2013-01-21 12:53:00,
2013-01-21 06:02:00,39.0,10.0,30.22,WNW,294,5.0,6.0,30,-99.99,,,-99.99,0.000000,,2013-01-21 13:02:00,
2013-01-21 06:13:00,38.0,10.0,30.22,NW,304,6.0,7.0,30,-99.99,,,-99.99,0.000000,,2013-01-21 13:13:00,
2013-01-21 06:23:00,38.0,10.0,30.22,NW,304,6.0,7.0,30,-99.99,,,-99.99,0.000000,,2013-01-21 13:23:00,
2013-01-21 06:33:00,38.0,10.0,30.22,NW,304,6.0,7.0,30,-99.99,,,-99.99,0.000000,,2013-01-21 13:33:00,
2013-01-21 06:43:00,40.0,10.0,30.22,NW,304,3.0,5.0,29,-99.99,,,-99.99,0.000000,,2013-01-21 13:43:00,
2013-01-21 06:54:00,40.0,10.0,30.22,NW,304,3.0,5.0,29,-99.99,,,-99.99,0.000000,,2013-01-21 13:54:00,
2013-01-21 07:03:00,39.0,10.0,30.23,WNW,303,4.0,7.0,30,-99.99,,,-99.99,0.000000,,2013-01-21 14:03:00,
2013-01-21 07:12:00,38.0,11.0,30.23,WNW,301,6.0,8.0,31,-99.99,,,-99.99,0.000000,,2013-01-21 14:12:00,
2013-01-21 07:23:00,38.0,11.0,30.23,WNW,301,6.0,8.0,31,-99.99,,,-99.99,0.000000,,2013-01-21 14:23:00,
2013-01-21 07:32:00,38.0,11.0,30.24,NW,314,7.0,8.0,31,-99.99,,,-99.99,1.390000,,2013-01-21 14:32:00,
2013-01-21 07:43:00,41.0,10.0,30.24,NNW,343,5.0,8.0,28,-99.99,,,-99.99,15.340000,,2013-01-21 14:43:00,
2013-01-21 07:53:00,41.0,10.0,30.24,NNW,343,5.0,8.0,28,-99.99,,,-99.99,15.340000,,2013-01-21 14:53:00,
2013-01-21 08:03:00,41.0,11.0,30.25,NW,315,6.0,8.0,28,-99.99,,,-99.99,48.810001,,2013-01-21 15:03:00,
2013-01-21 08:13:00,40.0,11.0,30.25,NW,308,8.0,10.0,30,-99.99,,,-99.99,57.180000,,2013-01-21 15:13:00,
2013-01-21 08:23:00,40.0,11.0,30.25,NW,308,8.0,10.0,30,-99.99,,,-99.99,57.180000,,2013-01-21 15:23:00,
2013-01-21 08:33:00,42.0,11.0,30.26,NW,304,8.0,9.0,27,-99.99,,,-99.99,89.959999,,2013-01-21 15:33:00,
2013-01-21 08:43:00,44.0,12.0,30.26,WNW,299,7.0,8.0,27,-99.99,,,-99.99,142.259995,,2013-01-21 15:43:00,
2013-01-21 08:53:00,46.0,13.0,30.27,ENE,78,3.0,7.0,25,-99.99,,,-99.99,316.589996,,2013-01-21 15:53:00,
2013-01-21 09:03:00,46.0,13.0,30.27,ENE,78,3.0,7.0,25,-99.99,,,-99.99,316.589996,,2013-01-21 16:03:00,
2013-01-21 09:12:00,46.0,12.0,30.28,ESE,123,1.0,3.0,24,-99.99,,,-99.99,239.190002,,2013-01-21 16:12:00,
2013-01-21 09:23:00,46.0,12.0,30.28,ESE,123,1.0,3.0,24,-99.99,,,-99.99,239.190002,,2013-01-21 16:23:00,
2013-01-21 09:33:00,46.0,11.0,30.29,ESE,123,1.0,4.0,23,-99.99,,,-99.99,230.119995,,2013-01-21 16:33:00,
2013-01-21 09:43:00,45.0,11.0,30.29,SE,125,3.0,5.0,24,-99.99,,,-99.99,491.619995,,2013-01-21 16:43:00,
2013-01-21 09:53:00,45.0,11.0,30.29,SE,125,3.0,5.0,24,-99.99,,,-99.99,491.619995,,2013-01-21 16:53:00,
2013-01-21 10:02:00,45.0,11.0,30.29,SE,125,3.0,5.0,24,-99.99,,,-99.99,491.619995,,2013-01-21 17:02:00,
2013-01-21 10:12:00,51.0,11.0,30.30,ESE,116,0.0,2.0,20,-99.99,,,-99.99,655.489990,,2013-01-21 17:12:00,
2013-01-21 10:23:00,51.0,11.0,30.30,ESE,116,0.0,2.0,20,-99.99,,,-99.99,655.489990,,2013-01-21 17:23:00,
2013-01-21 10:33:00,51.0,12.0,30.30,ESE,114,3.0,7.0,20,-99.99,,,-99.99,658.280029,,2013-01-21 17:33:00,
2013-01-21 10:43:00,48.0,12.0,30.31,ESE,114,4.0,6.0,22,-99.99,,,-99.99,711.280029,,2013-01-21 17:43:00,
2013-01-21 10:53:00,48.0,12.0,30.31,ESE,114,4.0,6.0,22,-99.99,,,-99.99,711.280029,,2013-01-21 17:53:00,
2013-01-21 11:03:00,49.0,12.0,30.31,ESE,110,2.0,4.0,21,-99.99,,,-99.99,741.270020,,2013-01-21 18:03:00,
2013-01-21 11:12:00,51.0,12.0,30.31,ESE,118,2.0,5.0,20,-99.99,,,-99.99,767.760010,,2013-01-21 18:12:00,
2013-01-21 11:22:00,51.0,12.0,30.31,ESE,118,2.0,5.0,20,-99.99,,,-99.99,767.760010,,2013-01-21 18:22:00,
2013-01-21 11:33:00,51.0,11.0,30.31,SE,126,3.0,6.0,19,-99.99,,,-99.99,798.450012,,2013-01-21 18:33:00,
2013-01-21 11:42:00,51.0,11.0,30.31,SE,142,3.0,6.0,19,-99.99,,,-99.99,820.760010,,2013-01-21 18:42:00,
2013-01-21 11:53:00,51.0,11.0,30.31,SE,142,3.0,6.0,19,-99.99,,,-99.99,820.760010,,2013-01-21 18:53:00,
2013-01-21 12:03:00,53.0,10.0,30.30,ESE,109,2.0,6.0,17,-99.99,,,-99.99,842.380005,,2013-01-21 19:03:00,
2013-01-21 12:12:00,53.0,10.0,30.30,SE,124,5.0,7.0,17,-99.99,,,-99.99,862.599976,,2013-01-21 19:12:00,
2013-01-21 12:22:00,53.0,10.0,30.30,SE,124,5.0,7.0,17,-99.99,,,-99.99,862.599976,,2013-01-21 19:22:00,
2013-01-21 12:33:00,53.0,9.0,30.29,ESE,114,4.0,7.0,16,-99.99,,,-99.99,875.150024,,2013-01-21 19:33:00,
2013-01-21 12:43:00,54.0,8.0,30.28,SE,130,4.0,7.0,15,-99.99,,,-99.99,820.760010,,2013-01-21 19:43:00,
2013-01-21 12:53:00,54.0,8.0,30.28,SE,130,4.0,7.0,15,-99.99,,,-99.99,820.760010,,2013-01-21 19:53:00,
2013-01-21 13:03:00,55.0,8.0,30.27,SE,143,4.0,9.0,14,-99.99,,,-99.99,887.710022,,2013-01-21 20:03:00,
2013-01-21 13:12:00,55.0,7.0,30.26,SE,124,4.0,8.0,14,-99.99,,,-99.99,889.099976,,2013-01-21 20:12:00,
2013-01-21 13:23:00,55.0,7.0,30.26,SE,124,4.0,8.0,14,-99.99,,,-99.99,889.099976,,2013-01-21 20:23:00,
2013-01-21 13:33:00,56.0,7.0,30.26,SE,136,5.0,10.0,13,-99.99,,,-99.99,885.609985,,2013-01-21 20:33:00,
2013-01-21 13:43:00,56.0,7.0,30.25,SE,126,5.0,11.0,13,-99.99,,,-99.99,878.640015,,2013-01-21 20:43:00,
2013-01-21 13:53:00,56.0,7.0,30.25,SE,126,5.0,11.0,13,-99.99,,,-99.99,878.640015,,2013-01-21 20:53:00,
2013-01-21 14:03:00,56.0,7.0,30.24,ESE,112,6.0,11.0,13,-99.99,,,-99.99,868.179993,,2013-01-21 21:03:00,
2013-01-21 14:12:00,56.0,7.0,30.24,ESE,108,7.0,13.0,13,-99.99,,,-99.99,813.090027,,2013-01-21 21:12:00,
2013-01-21 14:23:00,56.0,7.0,30.24,ESE,108,7.0,13.0,13,-99.99,,,-99.99,813.090027,,2013-01-21 21:23:00,
2013-01-21 14:33:00,56.0,7.0,30.24,ESE,120,6.0,14.0,13,-99.99,,,-99.99,755.909973,,2013-01-21 21:33:00,
2013-01-21 14:43:00,56.0,7.0,30.23,ESE,113,8.0,12.0,13,-99.99,,,-99.99,619.229980,,2013-01-21 21:43:00,
2013-01-21 14:53:00,56.0,7.0,30.23,ESE,113,8.0,12.0,13,-99.99,,,-99.99,619.229980,,2013-01-21 21:53:00,
2013-01-21 15:03:00,56.0,7.0,30.23,ESE,113,8.0,12.0,13,-99.99,,,-99.99,619.229980,,2013-01-21 22:03:00,
2013-01-21 15:12:00,56.0,7.0,30.23,ESE,119,6.0,9.0,13,-99.99,,,-99.99,610.169983,,2013-01-21 22:12:00,
2013-01-21 15:23:00,56.0,7.0,30.23,ESE,119,6.0,9.0,13,-99.99,,,-99.99,610.169983,,2013-01-21 22:23:00,
2013-01-21 15:33:00,56.0,7.0,30.22,ESE,121,4.0,9.0,13,-99.99,,,-99.99,603.190002,,2013-01-21 22:33:00,
2013-01-21 15:43:00,57.0,7.0,30.22,ESE,105,6.0,10.0,13,-99.99,,,-99.99,609.469971,,2013-01-21 22:43:00,
2013-01-21 15:53:00,57.0,7.0,30.22,ESE,110,6.0,10.0,13,-99.99,,,-99.99,577.390015,,2013-01-21 22:53:00,
2013-01-21 16:03:00,57.0,7.0,30.22,ESE,110,6.0,10.0,13,-99.99,,,-99.99,577.390015,,2013-01-21 23:03:00,
2013-01-21 16:12:00,56.0,7.0,30.22,ESE,115,5.0,11.0,13,-99.99,,,-99.99,502.779999,,2013-01-21 23:12:00,
2013-01-21 16:23:00,56.0,7.0,30.22,ESE,115,5.0,11.0,13,-99.99,,,-99.99,502.779999,,2013-01-21 23:23:00,
2013-01-21 16:33:00,56.0,7.0,30.22,East,101,4.0,7.0,13,-99.99,,,-99.99,464.420013,,2013-01-21 23:33:00,
2013-01-21 16:42:00,56.0,7.0,30.22,East,101,4.0,7.0,13,-99.99,,,-99.99,464.420013,,2013-01-21 23:42:00,
2013-01-21 16:53:00,56.0,7.0,30.22,East,101,4.0,7.0,13,-99.99,,,-99.99,464.420013,,2013-01-21 23:53:00,
2013-01-21 17:02:00,56.0,7.0,30.22,SE,140,3.0,5.0,13,-99.99,,,-99.99,338.209991,,2013-01-22 00:02:00,
2013-01-21 17:12:00,55.0,9.0,30.21,SW,226,2.0,5.0,14,-99.99,,,-99.99,167.360001,,2013-01-22 00:12:00,
2013-01-21 17:22:00,55.0,9.0,30.21,SW,226,2.0,5.0,14,-99.99,,,-99.99,167.360001,,2013-01-22 00:22:00,
2013-01-21 17:33:00,52.0,9.0,30.21,SSW,196,1.0,3.0,17,-99.99,,,-99.99,18.830000,,2013-01-22 00:33:00,
2013-01-21 17:43:00,51.0,9.0,30.21,South,181,1.0,2.0,17,-99.99,,,-99.99,13.250000,,2013-01-22 00:43:00,
2013-01-21 17:53:00,51.0,9.0,30.21,South,181,1.0,2.0,17,-99.99,,,-99.99,13.250000,,2013-01-22 00:53:00,
2013-01-21 18:00:00,46.0,11.0,30.21,WNW,299,6.0,7.0,23,-99.99,,,-99.99,0.000000,,2013-01-22 01:00:00,
2013-01-21 18:02:00,50.0,10.0,30.21,West,276,3.0,5.0,19,-99.99,,,-99.99,7.670000,,2013-01-22 01:02:00,
2013-01-21 18:12:00,50.0,10.0,30.21,West,276,3.0,5.0,19,-99.99,,,-99.99,7.670000,,2013-01-22 01:12:00,
2013-01-21 18:23:00,50.0,10.0,30.21,West,276,3.0,5.0,19,-99.99,,,-99.99,7.670000,,2013-01-22 01:23:00,
2013-01-21 18:32:00,46.0,11.0,30.21,WNW,299,6.0,7.0,23,-99.99,,,-99.99,0.000000,,2013-01-22 01:32:00,
2013-01-21 18:42:00,46.0,11.0,30.21,WNW,299,6.0,7.0,23,-99.99,,,-99.99,0.000000,,2013-01-22 01:42:00,
2013-01-21 18:52:00,46.0,11.0,30.21,WNW,299,6.0,7.0,23,-99.99,,,-99.99,0.000000,,2013-01-22 01:52:00,
2013-01-21 19:43:00,45.0,11.0,30.22,WNW,296,6.0,8.0,24,-99.99,,,-99.99,0.000000,,2013-01-22 02:43:00,
2013-01-21 19:53:00,45.0,11.0,30.22,WNW,296,6.0,8.0,24,-99.99,,,-99.99,0.000000,,2013-01-22 02:53:00,
2013-01-21 20:02:00,45.0,11.0,30.22,NW,304,7.0,9.0,25,-99.99,,,-99.99,0.000000,,2013-01-22 03:02:00,
2013-01-21 20:12:00,45.0,12.0,30.22,WNW,297,6.0,9.0,25,-99.99,,,-99.99,0.000000,,2013-01-22 03:12:00,
2013-01-21 20:22:00,45.0,12.0,30.22,WNW,297,6.0,9.0,25,-99.99,,,-99.99,0.000000,,2013-01-22 03:22:00,
2013-01-21 20:32:00,45.0,12.0,30.22,WNW,297,6.0,9.0,25,-99.99,,,-99.99,0.000000,,2013-01-22 03:32:00,
2013-01-21 20:42:00,46.0,13.0,30.22,NW,315,6.0,10.0,25,-99.99,,,-99.99,0.000000,,2013-01-22 03:42:00,
2013-01-21 20:53:00,46.0,13.0,30.22,NW,315,6.0,10.0,25,-99.99,,,-99.99,0.000000,,2013-01-22 03:53:00,
2013-01-21 21:02:00,45.0,14.0,30.22,WNW,302,8.0,10.0,28,-99.99,,,-99.99,0.000000,,2013-01-22 04:02:00,
2013-01-21 21:12:00,45.0,14.0,30.23,WNW,301,5.0,6.0,27,-99.99,,,-99.99,0.000000,,2013-01-22 04:12:00,
2013-01-21 21:22:00,45.0,14.0,30.23,WNW,301,5.0,6.0,27,-99.99,,,-99.99,0.000000,,2013-01-22 04:22:00,
2013-01-21 21:32:00,45.0,14.0,30.23,NW,307,8.0,10.0,27,-99.99,,,-99.99,0.000000,,2013-01-22 04:32:00,
2013-01-21 21:42:00,44.0,14.0,30.23,WNW,297,7.0,9.0,28,-99.99,,,-99.99,0.000000,,2013-01-22 04:42:00,
2013-01-21 21:52:00,45.0,14.0,30.23,NW,304,6.0,8.0,28,-99.99,,,-99.99,0.000000,,2013-01-22 04:52:00,
2013-01-21 22:04:00,45.0,14.0,30.23,NW,304,6.0,8.0,28,-99.99,,,-99.99,0.000000,,2013-01-22 05:04:00,
2013-01-21 22:12:00,45.0,14.0,30.23,WNW,297,7.0,9.0,27,-99.99,,,-99.99,0.000000,,2013-01-22 05:12:00,
2013-01-21 22:22:00,45.0,14.0,30.23,WNW,297,7.0,9.0,27,-99.99,,,-99.99,0.000000,,2013-01-22 05:22:00,
2013-01-21 22:32:00,44.0,14.0,30.24,NW,305,7.0,9.0,28,-99.99,,,-99.99,0.000000,,2013-01-22 05:32:00,
2013-01-21 22:42:00,44.0,14.0,30.24,NW,308,8.0,10.0,28,-99.99,,,-99.99,0.000000,,2013-01-22 05:42:00,
2013-01-21 22:53:00,44.0,14.0,30.24,NW,308,8.0,10.0,28,-99.99,,,-99.99,0.000000,,2013-01-22 05:53:00,
2013-01-21 23:02:00,45.0,14.0,30.24,NW,306,9.0,11.0,28,-99.99,,,-99.99,0.000000,,2013-01-22 06:02:00,
2013-01-21 23:12:00,44.0,14.0,30.24,NW,317,7.0,9.0,28,-99.99,,,-99.99,0.000000,,2013-01-22 06:12:00,
2013-01-21 23:22:00,44.0,14.0,30.24,NW,317,7.0,9.0,28,-99.99,,,-99.99,0.000000,,2013-01-22 06:22:00,
2013-01-21 23:32:00,44.0,14.0,30.25,NW,316,7.0,9.0,28,-99.99,,,-99.99,0.000000,,2013-01-22 06:32:00,
2013-01-21 23:42:00,46.0,14.0,30.25,NW,317,7.0,9.0,27,-99.99,,,-99.99,0.000000,,2013-01-22 06:42:00,
2013-01-21 23:53:00,46.0,14.0,30.25,NW,317,7.0,9.0,27,-99.99,,,-99.99,0.000000,,2013-01-22 06:53:00,